KLM219 EHAM-EGLL

Flight info

Callsign KLM219
Flight time N/A
Altitude 24000
Route IDRID L980 LOGAN
Aircraft B738/M-SDE2E3FGHIRWXY/LB1

Departure

Time 2026-05-05 12:00
Airport Amsterdam Airport Schiphol (EHAM)

Arrival

Time N/A
Airport London Heathrow Airport (EGLL)
Time Latitude Longitude Altitude Speed Heading
2026-05-05 11:28 52.30582 4.76703 1 ft 0 kts 215°
2026-05-05 11:39 52.30594 4.76717 1 ft 2 kts 215°
2026-05-05 11:40 52.30608 4.76732 2 ft 2 kts 214°
2026-05-05 11:40 52.30621 4.76748 4 ft 2 kts 214°
2026-05-05 11:40 52.30635 4.76763 0 ft 2 kts 214°
2026-05-05 11:40 52.30636 4.76764 0 ft 0 kts 214°
2026-05-05 11:42 52.30635 4.76764 0 ft 0 kts 210°
2026-05-05 11:43 52.30619 4.76760 2 ft 0 kts 164°
2026-05-05 11:43 52.30616 4.76788 3 ft 8 kts 92°
2026-05-05 11:44 52.30575 4.76899 4 ft 15 kts 145°
2026-05-05 11:44 52.30479 4.76970 5 ft 7 kts 199°
2026-05-05 11:44 52.30438 4.76888 6 ft 12 kts 237°
2026-05-05 11:44 52.30390 4.76767 8 ft 15 kts 237°
2026-05-05 11:45 52.30329 4.76604 12 ft 17 kts 238°
2026-05-05 11:45 52.30271 4.76453 14 ft 15 kts 237°
2026-05-05 11:45 52.30217 4.76314 12 ft 14 kts 237°
2026-05-05 11:45 52.30167 4.76186 12 ft 13 kts 238°
2026-05-05 11:46 52.30117 4.76054 9 ft 14 kts 238°
2026-05-05 11:46 52.30065 4.75920 10 ft 13 kts 237°
2026-05-05 11:46 52.30016 4.75795 8 ft 13 kts 238°
2026-05-05 11:46 52.29967 4.75662 10 ft 14 kts 238°
2026-05-05 11:47 52.29919 4.75538 12 ft 12 kts 237°
2026-05-05 11:47 52.29874 4.75423 12 ft 11 kts 238°
2026-05-05 11:47 52.29838 4.75319 14 ft 10 kts 248°
2026-05-05 11:47 52.29843 4.75198 12 ft 11 kts 300°
2026-05-05 11:48 52.29974 4.74950 5 ft 13 kts 310°
2026-05-05 11:48 52.30040 4.74826 5 ft 16 kts 312°
2026-05-05 11:48 52.30116 4.74687 9 ft 15 kts 311°
2026-05-05 11:49 52.30180 4.74568 12 ft 9 kts 311°
2026-05-05 11:49 52.30230 4.74474 12 ft 13 kts 311°
2026-05-05 11:49 52.30299 4.74346 13 ft 13 kts 311°
2026-05-05 11:49 52.30363 4.74238 13 ft 13 kts 322°
2026-05-05 11:50 52.30443 4.74195 14 ft 12 kts 360°
2026-05-05 11:50 52.30538 4.74202 10 ft 18 kts
2026-05-05 11:50 52.30682 4.74216 7 ft 23 kts
2026-05-05 11:50 52.30834 4.74228 6 ft 22 kts
2026-05-05 11:51 52.30978 4.74242 6 ft 19 kts
2026-05-05 11:51 52.31099 4.74252 8 ft 17 kts
2026-05-05 11:51 52.31217 4.74266 8 ft 17 kts
2026-05-05 11:51 52.31317 4.74274 11 ft 12 kts
2026-05-05 11:52 52.31411 4.74282 13 ft 16 kts
2026-05-05 11:52 52.31559 4.74296 13 ft 26 kts
2026-05-05 11:52 52.31738 4.74315 13 ft 26 kts
2026-05-05 11:52 52.31918 4.74330 7 ft 25 kts
2026-05-05 11:53 52.32022 4.74299 7 ft 11 kts 311°
2026-05-05 11:53 52.32033 4.74208 10 ft 6 kts 272°
2026-05-05 11:53 52.32035 4.74114 11 ft 15 kts 273°
2026-05-05 11:53 52.32042 4.73913 16 ft 17 kts 274°
2026-05-05 11:54 52.32049 4.73735 18 ft 15 kts 274°
2026-05-05 11:54 52.32057 4.73565 16 ft 15 kts 273°
2026-05-05 11:54 52.32081 4.73378 13 ft 20 kts 300°
2026-05-05 11:54 52.32189 4.73212 5 ft 23 kts 320°
2026-05-05 11:55 52.32272 4.73098 0 ft 24 kts 319°
2026-05-05 11:55 52.32400 4.72919 -3 ft 24 kts 320°
2026-05-05 11:55 52.32561 4.72690 -4 ft 22 kts 318°
2026-05-05 11:55 52.32633 4.72585 -3 ft 20 kts 319°
2026-05-05 11:56 52.32727 4.72432 -10 ft 22 kts 311°
2026-05-05 11:56 52.32814 4.72273 -1 ft 17 kts 311°
2026-05-05 11:56 52.32894 4.72125 -3 ft 17 kts 310°
2026-05-05 11:56 52.32969 4.71984 -2 ft 15 kts 311°
2026-05-05 11:57 52.33032 4.71869 0 ft 12 kts 312°
2026-05-05 11:57 52.33082 4.71780 2 ft 9 kts 312°
2026-05-05 11:57 52.33122 4.71703 4 ft 13 kts 308°
2026-05-05 11:57 52.33143 4.71521 11 ft 18 kts 248°
2026-05-05 11:58 52.33065 4.71392 11 ft 15 kts 222°
2026-05-05 11:58 52.32990 4.71285 12 ft 14 kts 221°
2026-05-05 11:58 52.32928 4.71195 14 ft 11 kts 223°
2026-05-05 11:58 52.32873 4.71104 14 ft 12 kts 238°
2026-05-05 11:59 52.32868 4.70960 14 ft 13 kts 282°
2026-05-05 11:59 52.32920 4.70892 14 ft 0 kts 359°
2026-05-05 11:59 52.32947 4.70892 13 ft 26 kts
2026-05-05 12:00 52.33450 4.70939 15 ft 116 kts
2026-05-05 12:00 52.34476 4.71070 191 ft 175 kts
2026-05-05 12:00 52.35794 4.71115 952 ft 201 kts
2026-05-05 12:00 52.37117 4.71273 2430 ft 180 kts
2026-05-05 12:01 52.38318 4.71444 3684 ft 170 kts
2026-05-05 12:01 52.39550 4.71574 4287 ft 187 kts
2026-05-05 12:01 52.40918 4.71651 4667 ft 206 kts
2026-05-05 12:01 52.42427 4.71734 4926 ft 228 kts
2026-05-05 12:02 52.44013 4.71862 5612 ft 226 kts
2026-05-05 12:02 52.45645 4.72029 5990 ft 249 kts
2026-05-05 12:02 52.47462 4.72203 6387 ft 270 kts
2026-05-05 12:02 52.49364 4.72372 7116 ft 276 kts
2026-05-05 12:03 52.51295 4.72538 7962 ft 279 kts
2026-05-05 12:03 52.53245 4.72699 8781 ft 283 kts
2026-05-05 12:03 52.55214 4.72484 9573 ft 286 kts 343°
2026-05-05 12:03 52.57007 4.71084 10316 ft 290 kts 322°
2026-05-05 12:04 52.58386 4.68547 10534 ft 312 kts 297°
2026-05-05 12:04 52.59102 4.65072 10747 ft 333 kts 276°
2026-05-05 12:04 52.59180 4.61131 10915 ft 356 kts 268°
2026-05-05 12:04 52.58602 4.57138 11377 ft 367 kts 244°
2026-05-05 12:05 52.57067 4.53867 12137 ft 369 kts 223°
2026-05-05 12:05 52.54914 4.51574 12902 ft 374 kts 205°
2026-05-05 12:05 52.52487 4.49918 13524 ft 380 kts 203°
2026-05-05 12:05 52.50007 4.48309 14147 ft 384 kts 204°
2026-05-05 12:06 52.47532 4.46680 14878 ft 384 kts 204°
2026-05-05 12:06 52.45058 4.45010 15534 ft 387 kts 204°
2026-05-05 12:06 52.42556 4.43298 16064 ft 392 kts 204°
2026-05-05 12:06 52.40233 4.40983 16640 ft 393 kts 223°
2026-05-05 12:07 52.38494 4.37526 17296 ft 395 kts 239°
2026-05-05 12:07 52.37188 4.33582 18026 ft 395 kts 242°
2026-05-05 12:07 52.35927 4.29567 18515 ft 400 kts 242°
2026-05-05 12:07 52.34645 4.25506 18990 ft 404 kts 242°
2026-05-05 12:08 52.33331 4.21438 19537 ft 405 kts 241°
2026-05-05 12:08 52.31992 4.17348 19952 ft 411 kts 241°
2026-05-05 12:08 52.30533 4.13330 20485 ft 411 kts 235°
2026-05-05 12:08 52.28829 4.09585 21105 ft 410 kts 231°
2026-05-05 12:09 52.27033 4.05943 21582 ft 413 kts 230°
2026-05-05 12:09 52.25201 4.02296 22008 ft 417 kts 230°
2026-05-05 12:09 52.23366 3.98613 22444 ft 420 kts 231°
2026-05-05 12:09 52.21530 3.94876 22808 ft 425 kts 231°
2026-05-05 12:10 52.19681 3.91071 23136 ft 430 kts 231°
2026-05-05 12:10 52.17829 3.87233 23573 ft 432 kts 231°
2026-05-05 12:10 52.15981 3.83395 23945 ft 429 kts 231°
2026-05-05 12:10 52.14128 3.79546 23942 ft 434 kts 231°
2026-05-05 12:11 52.12258 3.75669 23949 ft 436 kts 231°
2026-05-05 12:11 52.10384 3.71789 23958 ft 437 kts 231°
2026-05-05 12:11 52.08509 3.67914 23956 ft 436 kts 231°
2026-05-05 12:11 52.06632 3.64043 23961 ft 434 kts 231°
2026-05-05 12:12 52.04764 3.60193 23959 ft 435 kts 231°
2026-05-05 12:12 52.02886 3.56331 23958 ft 435 kts 231°
2026-05-05 12:12 52.01011 3.52475 23964 ft 436 kts 232°
2026-05-05 12:12 51.99481 3.48238 23945 ft 437 kts 249°
2026-05-05 12:13 51.98703 3.43452 23973 ft 441 kts 256°
2026-05-05 12:13 51.98111 3.38556 23969 ft 444 kts 257°
2026-05-05 12:13 51.97535 3.33633 23957 ft 445 kts 257°
2026-05-05 12:13 51.96953 3.28690 23957 ft 446 kts 258°
2026-05-05 12:14 51.96372 3.23837 23953 ft 443 kts 257°
2026-05-05 12:14 51.95776 3.18969 23950 ft 438 kts 257°
2026-05-05 12:14 51.95174 3.14126 23951 ft 439 kts 258°
2026-05-05 12:14 51.94561 3.09262 23959 ft 441 kts 256°
2026-05-05 12:15 51.93939 3.04383 23957 ft 443 kts 257°
2026-05-05 12:15 51.93314 2.99492 23960 ft 444 kts 257°
2026-05-05 12:15 51.92687 2.94598 23953 ft 445 kts 257°
2026-05-05 12:15 51.92057 2.89687 23968 ft 445 kts 257°
2026-05-05 12:16 51.91426 2.84791 23970 ft 444 kts 256°
2026-05-05 12:16 51.90794 2.79886 24235 ft 445 kts 257°
2026-05-05 12:16 51.90156 2.74975 24622 ft 446 kts 256°
2026-05-05 12:16 51.89520 2.70088 24972 ft 443 kts 256°
2026-05-05 12:17 51.88882 2.65208 24957 ft 443 kts 256°
2026-05-05 12:17 51.88239 2.60327 24963 ft 445 kts 256°
2026-05-05 12:17 51.87592 2.55412 24973 ft 448 kts 256°
2026-05-05 12:17 51.86941 2.50485 24970 ft 447 kts 256°
2026-05-05 12:18 51.86288 2.45564 24968 ft 447 kts 256°
2026-05-05 12:18 51.85633 2.40643 24969 ft 448 kts 256°
2026-05-05 12:18 51.84975 2.35723 24970 ft 448 kts 256°
2026-05-05 12:18 51.84317 2.30805 24967 ft 447 kts 256°
2026-05-05 12:19 51.83659 2.25892 24967 ft 447 kts 256°
2026-05-05 12:19 51.82997 2.20979 24970 ft 447 kts 256°
2026-05-05 12:19 51.82333 2.16073 24970 ft 447 kts 256°
2026-05-05 12:19 51.81667 2.11166 24968 ft 447 kts 256°
2026-05-05 12:20 51.80999 2.06262 24968 ft 447 kts 256°
2026-05-05 12:20 51.80331 2.01364 24971 ft 446 kts 256°
2026-05-05 12:20 51.79661 1.96470 24970 ft 446 kts 256°
2026-05-05 12:20 51.78987 1.91573 24971 ft 447 kts 256°
2026-05-05 12:21 51.78310 1.86676 24972 ft 448 kts 256°
2026-05-05 12:21 51.77629 1.81755 24977 ft 449 kts 255°
2026-05-05 12:21 51.76945 1.76827 24978 ft 451 kts 255°
2026-05-05 12:21 51.76258 1.71888 24980 ft 452 kts 255°
2026-05-05 12:22 51.75566 1.66935 24979 ft 453 kts 255°
2026-05-05 12:22 51.74879 1.62037 24975 ft 454 kts 256°
2026-05-05 12:22 51.74312 1.57021 24964 ft 456 kts 261°
2026-05-05 12:22 51.73965 1.51940 24982 ft 456 kts 263°
2026-05-05 12:23 51.73697 1.46841 24979 ft 456 kts 264°
2026-05-05 12:23 51.73434 1.41735 24977 ft 456 kts 263°
2026-05-05 12:23 51.73150 1.36640 24973 ft 456 kts 263°
2026-05-05 12:23 51.72842 1.31559 24963 ft 454 kts 262°
2026-05-05 12:24 51.72524 1.26570 24643 ft 439 kts 262°
2026-05-05 12:24 51.72203 1.21703 23759 ft 438 kts 263°
2026-05-05 12:24 51.71875 1.16837 23280 ft 432 kts 262°
2026-05-05 12:24 51.71558 1.12151 23141 ft 409 kts 262°
2026-05-05 12:25 51.71256 1.07701 22863 ft 390 kts 263°
2026-05-05 12:25 51.70966 1.03421 22412 ft 379 kts 263°
2026-05-05 12:25 51.70680 0.99246 21969 ft 370 kts 262°
2026-05-05 12:25 51.70396 0.95139 21306 ft 368 kts 263°
2026-05-05 12:26 51.70114 0.91069 20678 ft 363 kts 262°
2026-05-05 12:26 51.69834 0.87049 20049 ft 359 kts 263°
2026-05-05 12:26 51.69555 0.83066 19439 ft 356 kts 263°
2026-05-05 12:26 51.69280 0.79142 18841 ft 352 kts 263°
2026-05-05 12:27 51.69005 0.75234 18246 ft 350 kts 263°
2026-05-05 12:27 51.68730 0.71355 17575 ft 347 kts 263°
2026-05-05 12:27 51.68457 0.67511 16927 ft 344 kts 263°
2026-05-05 12:27 51.68183 0.63687 16284 ft 342 kts 264°
2026-05-05 12:28 51.67910 0.59897 15651 ft 340 kts 264°
2026-05-05 12:28 51.67639 0.56129 15028 ft 337 kts 264°
2026-05-05 12:28 51.67367 0.52385 14420 ft 335 kts 264°
2026-05-05 12:28 51.67096 0.48662 13822 ft 334 kts 264°
2026-05-05 12:29 51.66825 0.44961 13168 ft 332 kts 264°
2026-05-05 12:29 51.66554 0.41284 12513 ft 329 kts 264°
2026-05-05 12:29 51.66284 0.37633 11891 ft 327 kts 264°
2026-05-05 12:29 51.66019 0.34071 11657 ft 312 kts 264°
2026-05-05 12:30 51.65768 0.30694 11563 ft 294 kts 264°
2026-05-05 12:30 51.65531 0.27527 11543 ft 276 kts 264°
2026-05-05 12:30 51.65309 0.24552 11552 ft 262 kts 264°
2026-05-05 12:30 51.65093 0.21670 11359 ft 259 kts 264°
2026-05-05 12:31 51.64877 0.18807 10999 ft 257 kts 264°
2026-05-05 12:31 51.64662 0.15963 10587 ft 254 kts 263°
2026-05-05 12:31 51.64547 0.13142 10132 ft 252 kts 276°
2026-05-05 12:31 51.64600 0.10342 10038 ft 252 kts 266°
2026-05-05 12:32 51.64444 0.07527 9992 ft 254 kts 265°
2026-05-05 12:32 51.64292 0.04676 9976 ft 256 kts 266°
2026-05-05 12:32 51.64207 0.03077 9971 ft 256 kts 266°